| time (UTC) | temp F | wind direction | speed MPH | gust MPH | rain 1hr in | rain 24hr in | rain mn in | humidity % | barometer mb |
| 20260505080531 | 74 | 0 | 0.0 | 1.0 | 0.00 | 0.00 | 0.00 | 82 | 1015.3 |
| 20260505080057 | 74 | 0 | 0.0 | 1.0 | 0.00 | 0.00 | 0.00 | 82 | 1015.4 |
| 20260505075529 | 74 | 0 | 0.0 | 1.0 | 0.00 | 0.00 | 0.00 | 82 | 1015.4 |
| 20260505075029 | 74 | 0 | 0.0 | 1.0 | 0.00 | 0.00 | 0.00 | 82 | 1015.3 |
| 20260505074543 | 74 | 0 | 0.0 | 2.0 | 0.00 | 0.00 | 0.00 | 82 | 1015.2 |
| 20260505074029 | 74 | 0 | 0.0 | 4.0 | 0.00 | 0.00 | 0.00 | 82 | 1015.2 |
| 20260505073529 | 74 | 0 | 0.0 | 4.0 | 0.00 | 0.00 | 0.00 | 82 | 1015.2 |
| 20260505073042 | 74 | 0 | 2.0 | 5.0 | 0.00 | 0.00 | 0.00 | 82 | 1015.2 |
| 20260505072529 | 74 | 163 | 3.0 | 5.0 | 0.00 | 0.00 | 0.00 | 82 | 1015.2 |
| 20260505072031 | 74 | 127 | 3.0 | 5.0 | 0.00 | 0.00 | 0.00 | 82 | 1015.2 |
| 20260505071552 | 74 | 360 | 0.0 | 2.0 | 0.00 | 0.00 | 0.00 | 82 | 1015.3 |
| 20260505071032 | 74 | 0 | 0.0 | 2.0 | 0.00 | 0.00 | 0.00 | 82 | 1015.3 |
| 20260505070530 | 74 | 119 | 0.0 | 3.0 | 0.00 | 0.00 | 0.00 | 81 | 1015.3 |
| 20260505070045 | 74 | 0 | 0.0 | 4.0 | 0.00 | 0.00 | 0.00 | 81 | 1015.3 |
| 20260505065614 | 74 | 0 | 0.0 | 4.0 | 0.00 | 0.00 | 0.00 | 81 | 1015.4 |
| 20260505065029 | 74 | 0 | 0.0 | 2.0 | 0.00 | 0.00 | 0.00 | 81 | 1015.3 |
| 20260505064546 | 74 | 46 | 0.0 | 3.0 | 0.00 | 0.00 | 0.00 | 81 | 1015.4 |
| 20260505064031 | 74 | 0 | 0.0 | 3.0 | 0.00 | 0.00 | 0.00 | 80 | 1015.4 |
| 20260505063530 | 75 | 0 | 0.0 | 2.0 | 0.00 | 0.00 | 0.00 | 80 | 1015.4 |
| 20260505063049 | 75 | 0 | 0.0 | 2.0 | 0.00 | 0.00 | 0.00 | 80 | 1015.5 |
| 20260505062530 | 75 | 60 | 0.0 | 2.0 | 0.00 | 0.00 | 0.00 | 80 | 1015.4 |
| 20260505062031 | 75 | 0 | 0.0 | 2.0 | 0.00 | 0.00 | 0.00 | 80 | 1015.4 |
| 20260505061546 | 75 | 0 | 0.0 | 1.0 | 0.00 | 0.00 | 0.00 | 79 | 1015.5 |
| 20260505061029 | 75 | 0 | 0.0 | 3.0 | 0.00 | 0.00 | 0.00 | 79 | 1015.6 |
| 20260505060531 | 75 | 0 | 0.0 | 3.0 | 0.00 | 0.00 | 0.00 | 79 | 1015.6 |
| 20260505060045 | 76 | 0 | 0.0 | 2.0 | 0.00 | 0.00 | 0.00 | 79 | 1015.5 |
| 20260505055531 | 76 | 0 | 0.0 | 3.0 | 0.00 | 0.00 | 0.00 | 79 | 1015.5 |
| 20260505055029 | 76 | 139 | 1.0 | 3.0 | 0.00 | 0.00 | 0.00 | 79 | 1015.6 |
| 20260505054551 | 76 | 0 | 1.0 | 3.0 | 0.00 | 0.00 | 0.00 | 79 | 1015.6 |
| 20260505054032 | 76 | 0 | 0.0 | 2.0 | 0.00 | 0.00 | 0.00 | 79 | 1015.7 |
| 20260505053529 | 76 | 0 | 0.0 | 2.0 | 0.00 | 0.00 | 0.00 | 78 | 1015.7 |
| 20260505053048 | 76 | 0 | 0.0 | 1.0 | 0.00 | 0.00 | 0.00 | 78 | 1015.8 |
| 20260505052533 | 76 | 129 | 0.0 | 3.0 | 0.00 | 0.00 | 0.00 | 78 | 1015.9 |
| 20260505052033 | 76 | 0 | 0.0 | 3.0 | 0.00 | 0.00 | 0.00 | 78 | 1016.0 |
| 20260505051545 | 76 | 152 | 0.0 | 3.0 | 0.00 | 0.00 | 0.00 | 78 | 1016.0 |
| 20260505051032 | 77 | 0 | 1.0 | 3.0 | 0.00 | 0.00 | 0.00 | 78 | 1016.1 |
| 20260505050529 | 77 | 151 | 1.0 | 3.0 | 0.00 | 0.00 | 0.00 | 78 | 1016.0 |
| 20260505041546 | 77 | 0 | 0.0 | 2.0 | 0.00 | 0.00 | 0.00 | 77 | 1016.5 |
| 20260505041030 | 77 | 0 | 0.0 | 2.0 | 0.00 | 0.00 | 0.00 | 77 | 1016.5 |
| 20260505040530 | 77 | 0 | 0.0 | 3.0 | 0.00 | 0.00 | 0.00 | 77 | 1016.5 |
| 20260505040045 | 77 | 121 | 0.0 | 3.0 | 0.00 | 0.00 | 0.00 | 77 | 1016.4 |
| 20260505035529 | 77 | 113 | 0.0 | 3.0 | 0.00 | 0.00 | 0.00 | 77 | 1016.4 |
| 20260505035029 | 78 | 111 | 1.0 | 3.0 | 0.00 | 0.00 | 0.00 | 77 | 1016.5 |
| 20260505034547 | 78 | 122 | 0.0 | 3.0 | 0.00 | 0.00 | 0.00 | 77 | 1016.5 |
| 20260505034029 | 78 | 121 | 0.0 | 5.0 | 0.00 | 0.00 | 0.00 | 77 | 1016.6 |
| 20260505033530 | 78 | 0 | 2.0 | 5.0 | 0.00 | 0.00 | 0.00 | 77 | 1016.6 |
| 20260505033041 | 78 | 132 | 3.0 | 6.0 | 0.00 | 0.00 | 0.00 | 77 | 1016.7 |
| 20260505032532 | 78 | 360 | 3.0 | 6.0 | 0.00 | 0.00 | 0.00 | 78 | 1016.7 |
| 20260505032030 | 78 | 112 | 1.0 | 6.0 | 0.00 | 0.00 | 0.00 | 77 | 1016.8 |
| 20260505031551 | 78 | 137 | 2.0 | 6.0 | 0.00 | 0.00 | 0.00 | 78 | 1016.7 |
| 20260505031034 | 78 | 107 | 3.0 | 6.0 | 0.00 | 0.00 | 0.00 | 78 | 1016.8 |
| 20260505030530 | 78 | 117 | 1.0 | 4.0 | 0.00 | 0.00 | 0.00 | 78 | 1016.9 |
| 20260505030045 | 79 | 0 | 0.0 | 4.0 | 0.00 | 0.00 | 0.00 | 78 | 1016.8 |
| 20260505025532 | 79 | 117 | 0.0 | 4.0 | 0.00 | 0.00 | 0.00 | 77 | 1016.7 |
| 20260505025034 | 79 | 360 | 0.0 | 4.0 | 0.00 | 0.00 | 0.00 | 77 | 1016.7 |
| 20260505024542 | 79 | 119 | 2.0 | 4.0 | 0.00 | 0.00 | 0.00 | 77 | 1016.8 |
| 20260505024031 | 79 | 360 | 1.0 | 4.0 | 0.00 | 0.00 | 0.00 | 77 | 1016.8 |
| 20260505023531 | 80 | 0 | 0.0 | 4.0 | 0.00 | 0.00 | 0.00 | 77 | 1016.7 |
| 20260505023051 | 80 | 0 | 1.0 | 4.0 | 0.00 | 0.00 | 0.00 | 77 | 1016.7 |
| 20260505022529 | 80 | 144 | 0.0 | 4.0 | 0.00 | 0.00 | 0.00 | 77 | 1016.7 |
| 20260505022032 | 80 | 161 | 1.0 | 4.0 | 0.00 | 0.00 | 0.00 | 77 | 1016.6 |
| 20260505021544 | 80 | 360 | 1.0 | 3.0 | 0.00 | 0.00 | 0.00 | 76 | 1016.5 |
| 20260505021030 | 81 | 0 | 0.0 | 2.0 | 0.00 | 0.00 | 0.00 | 76 | 1016.6 |
| 20260505020529 | 81 | 134 | 0.0 | 3.0 | 0.00 | 0.00 | 0.00 | 76 | 1016.6 |
| 20260505020043 | 81 | 0 | 0.0 | 3.0 | 0.00 | 0.00 | 0.00 | 76 | 1016.5 |
| 20260505015530 | 81 | 0 | 0.0 | 3.0 | 0.00 | 0.00 | 0.00 | 76 | 1016.4 |
| 20260505015029 | 81 | 0 | 0.0 | 3.0 | 0.00 | 0.00 | 0.00 | 76 | 1016.4 |
| 20260505014552 | 81 | 0 | 0.0 | 2.0 | 0.00 | 0.00 | 0.00 | 76 | 1016.3 |
| 20260505014029 | 82 | 172 | 0.0 | 4.0 | 0.00 | 0.00 | 0.00 | 76 | 1016.3 |
| 20260505013531 | 82 | 172 | 1.0 | 4.0 | 0.00 | 0.00 | 0.00 | 76 | 1016.3 |
| 20260505013046 | 82 | 169 | 2.0 | 4.0 | 0.00 | 0.00 | 0.00 | 76 | 1016.3 |
| 20260505012532 | 82 | 360 | 2.0 | 6.0 | 0.00 | 0.00 | 0.00 | 75 | 1016.2 |
| 20260505012030 | 82 | 117 | 2.0 | 6.0 | 0.00 | 0.00 | 0.00 | 75 | 1016.1 |
| 20260505011544 | 82 | 360 | 3.0 | 5.0 | 0.00 | 0.00 | 0.00 | 74 | 1016.2 |
| 20260505011034 | 82 | 171 | 2.0 | 5.0 | 0.00 | 0.00 | 0.00 | 73 | 1016.1 |
| 20260505010529 | 82 | 174 | 2.0 | 5.0 | 0.00 | 0.00 | 0.00 | 72 | 1016.0 |
| 20260505010105 | 82 | 360 | 2.0 | 4.0 | 0.00 | 0.00 | 0.00 | 72 | 1016.0 |
| 20260505005529 | 82 | 360 | 2.0 | 3.0 | 0.00 | 0.00 | 0.00 | 72 | 1016.0 |
| 20260505005031 | 82 | 186 | 1.0 | 3.0 | 0.00 | 0.00 | 0.00 | 72 | 1015.9 |
| 20260505004543 | 82 | 186 | 1.0 | 5.0 | 0.00 | 0.00 | 0.00 | 72 | 1015.9 |
| 20260505004029 | 82 | 186 | 2.0 | 5.0 | 0.00 | 0.00 | 0.00 | 72 | 1015.7 |
| 20260505003529 | 82 | 185 | 2.0 | 5.0 | 0.00 | 0.00 | 0.00 | 73 | 1015.7 |
| 20260505003046 | 82 | 165 | 2.0 | 5.0 | 0.00 | 0.00 | 0.00 | 73 | 1015.6 |
| 20260505002529 | 82 | 217 | 2.0 | 4.0 | 0.00 | 0.00 | 0.00 | 73 | 1015.6 |
| 20260505002031 | 82 | 194 | 1.0 | 4.0 | 0.00 | 0.00 | 0.00 | 74 | 1015.5 |
| 20260505001543 | 82 | 0 | 1.0 | 4.0 | 0.00 | 0.00 | 0.00 | 74 | 1015.5 |
| 20260505001028 | 82 | 208 | 2.0 | 5.0 | 0.00 | 0.00 | 0.00 | 74 | 1015.4 |
| 20260505000530 | 82 | 360 | 2.0 | 5.0 | 0.00 | 0.00 | 0.00 | 75 | 1015.4 |
| 20260505000049 | 82 | 146 | 1.0 | 3.0 | 0.00 | 0.00 | 0.00 | 75 | 1015.3 |
| 20260504235534 | 83 | 132 | 1.0 | 4.0 | 0.00 | 0.00 | 0.00 | 76 | 1015.3 |
| 20260504235032 | 83 | 130 | 1.0 | 4.0 | 0.00 | 0.00 | 0.00 | 76 | 1015.2 |
| 20260504234545 | 83 | 0 | 1.0 | 6.0 | 0.00 | 0.00 | 0.00 | 76 | 1015.2 |
| 20260504234030 | 83 | 197 | 3.0 | 6.0 | 0.00 | 0.00 | 0.00 | 76 | 1015.1 |
| 20260504233529 | 84 | 360 | 4.0 | 6.0 | 0.00 | 0.00 | 0.00 | 76 | 1015.1 |
| 20260504233042 | 84 | 215 | 3.0 | 11.0 | 0.00 | 0.00 | 0.00 | 76 | 1015.1 |
| 20260504232530 | 84 | 214 | 5.0 | 11.0 | 0.00 | 0.00 | 0.00 | 75 | 1015.2 |
| 20260504232029 | 84 | 360 | 4.0 | 10.0 | 0.00 | 0.00 | 0.00 | 75 | 1015.1 |
| 20260504231547 | 85 | 360 | 4.0 | 8.0 | 0.00 | 0.00 | 0.00 | 74 | 1015.1 |
| 20260504231029 | 85 | 211 | 3.0 | 8.0 | 0.00 | 0.00 | 0.00 | 74 | 1014.9 |
| 20260504230531 | 85 | 191 | 4.0 | 8.0 | 0.00 | 0.00 | 0.00 | 73 | 1014.9 |
| 20260504230046 | 85 | 360 | 4.0 | 8.0 | 0.00 | 0.00 | 0.00 | 72 | 1014.9 |
| 20260504225533 | 85 | 150 | 4.0 | 10.0 | 0.00 | 0.00 | 0.00 | 69 | 1014.7 |
| 20260504225030 | 85 | 360 | 5.0 | 10.0 | 0.00 | 0.00 | 0.00 | 66 | 1014.5 |
| 20260504224544 | 84 | 360 | 4.0 | 11.0 | 0.00 | 0.00 | 0.00 | 68 | 1014.5 |
| 20260504224031 | 84 | 157 | 5.0 | 11.0 | 0.00 | 0.00 | 0.00 | 69 | 1014.4 |
| 20260504223534 | 84 | 360 | 4.0 | 10.0 | 0.00 | 0.00 | 0.00 | 69 | 1014.3 |
| 20260504223059 | 84 | 143 | 5.0 | 10.0 | 0.00 | 0.00 | 0.00 | 71 | 1014.1 |
| 20260504222532 | 84 | 128 | 3.0 | 7.0 | 0.00 | 0.00 | 0.00 | 72 | 1014.1 |
| 20260504222032 | 85 | 136 | 1.0 | 11.0 | 0.00 | 0.00 | 0.00 | 76 | 1014.1 |
| 20260504221558 | 85 | 0 | 5.0 | 11.0 | 0.00 | 0.00 | 0.00 | 77 | 1014.0 |
| 20260504221030 | 85 | 13 | 4.0 | 10.0 | 0.00 | 0.00 | 0.00 | 77 | 1014.0 |
| 20260504220531 | 85 | 15 | 6.0 | 11.0 | 0.00 | 0.00 | 0.00 | 77 | 1013.9 |
| 20260504220046 | 85 | 14 | 6.0 | 12.0 | 0.00 | 0.00 | 0.00 | 77 | 1013.8 |
| 20260504215531 | 85 | 5 | 7.0 | 12.0 | 0.00 | 0.00 | 0.00 | 76 | 1013.7 |
| 20260504215030 | 85 | 5 | 6.0 | 11.0 | 0.00 | 0.00 | 0.00 | 76 | 1013.6 |
| 20260504214543 | 85 | 15 | 6.0 | 11.0 | 0.00 | 0.00 | 0.00 | 76 | 1013.6 |
| 20260504214030 | 85 | 18 | 5.0 | 10.0 | 0.00 | 0.00 | 0.00 | 77 | 1013.5 |
| 20260504213530 | 85 | 27 | 6.0 | 12.0 | 0.00 | 0.00 | 0.00 | 77 | 1013.4 |
| 20260504213058 | 85 | 352 | 8.0 | 12.0 | 0.00 | 0.00 | 0.00 | 76 | 1013.5 |
| 20260504212530 | 85 | 5 | 6.0 | 13.0 | 0.00 | 0.00 | 0.00 | 76 | 1013.4 |
| 20260504212032 | 85 | 344 | 8.0 | 13.0 | 0.00 | 0.00 | 0.00 | 76 | 1013.4 |
| 20260504211629 | 85 | 360 | 8.0 | 13.0 | 0.00 | 0.00 | 0.00 | 76 | 1013.4 |
| 20260504211029 | 85 | 25 | 6.0 | 13.0 | 0.00 | 0.00 | 0.00 | 76 | 1013.4 |
| 20260504210530 | 85 | 5 | 8.0 | 13.0 | 0.00 | 0.00 | 0.00 | 76 | 1013.4 |
| 20260504210046 | 86 | 360 | 7.0 | 14.0 | 0.00 | 0.00 | 0.00 | 76 | 1013.5 |
| 20260504205531 | 85 | 352 | 7.0 | 13.0 | 0.00 | 0.00 | 0.00 | 76 | 1013.5 |
| 20260504205031 | 85 | 5 | 6.0 | 11.0 | 0.00 | 0.00 | 0.00 | 76 | 1013.4 |
| 20260504204548 | 85 | 13 | 7.0 | 15.0 | 0.00 | 0.00 | 0.00 | 75 | 1013.4 |
| 20260504204031 | 85 | 352 | 8.0 | 17.0 | 0.00 | 0.00 | 0.00 | 75 | 1013.3 |
| 20260504203531 | 85 | 5 | 10.0 | 17.0 | 0.00 | 0.00 | 0.00 | 75 | 1013.3 |
| 20260504203049 | 85 | 352 | 9.0 | 15.0 | 0.00 | 0.00 | 0.00 | 75 | 1013.4 |
| 20260504202530 | 85 | 26 | 9.0 | 15.0 | 0.00 | 0.00 | 0.00 | 75 | 1013.3 |
| 20260504202030 | 85 | 5 | 8.0 | 14.0 | 0.00 | 0.00 | 0.00 | 75 | 1013.4 |
| 20260504201542 | 85 | 350 | 8.0 | 14.0 | 0.00 | 0.00 | 0.00 | 75 | 1013.4 |
| 20260504201030 | 86 | 340 | 9.0 | 15.0 | 0.00 | 0.00 | 0.00 | 74 | 1013.4 |
| 20260504200530 | 86 | 333 | 9.0 | 16.0 | 0.00 | 0.00 | 0.00 | 74 | 1013.4 |
| 20260504200046 | 86 | 348 | 10.0 | 16.0 | 0.00 | 0.00 | 0.00 | 74 | 1013.3 |
| 20260504195530 | 86 | 16 | 9.0 | 15.0 | 0.00 | 0.00 | 0.00 | 74 | 1013.3 |
| 20260504195030 | 86 | 9 | 9.0 | 14.0 | 0.00 | 0.00 | 0.00 | 74 | 1013.3 |
| 20260504194551 | 86 | 18 | 8.0 | 18.0 | 0.00 | 0.00 | 0.00 | 75 | 1013.4 |
| 20260504194030 | 86 | 5 | 9.0 | 18.0 | 0.00 | 0.00 | 0.00 | 75 | 1013.5 |
| 20260504193534 | 85 | 36 | 9.0 | 18.0 | 0.00 | 0.00 | 0.00 | 75 | 1013.5 |
| 20260504193048 | 85 | 17 | 10.0 | 17.0 | 0.00 | 0.00 | 0.00 | 75 | 1013.6 |
| 20260504192529 | 86 | 10 | 8.0 | 15.0 | 0.00 | 0.00 | 0.00 | 75 | 1013.6 |
| 20260504192032 | 86 | 22 | 9.0 | 16.0 | 0.00 | 0.00 | 0.00 | 75 | 1013.4 |
| 20260504191543 | 85 | 32 | 8.0 | 17.0 | 0.00 | 0.00 | 0.00 | 75 | 1013.5 |
| 20260504191031 | 85 | 36 | 10.0 | 17.0 | 0.00 | 0.00 | 0.00 | 74 | 1013.6 |
| 20260504190530 | 85 | 5 | 10.0 | 17.0 | 0.00 | 0.00 | 0.00 | 74 | 1013.5 |
| 20260504190050 | 86 | 5 | 9.0 | 19.0 | 0.00 | 0.00 | 0.00 | 74 | 1013.5 |
| 20260504185530 | 86 | 352 | 9.0 | 20.0 | 0.00 | 0.00 | 0.00 | 73 | 1013.5 |
| 20260504185035 | 86 | 27 | 10.0 | 20.0 | 0.00 | 0.00 | 0.00 | 73 | 1013.7 |
| 20260504184540 | 86 | 12 | 11.0 | 20.0 | 0.00 | 0.00 | 0.00 | 73 | 1013.6 |
| 20260504184033 | 86 | 5 | 10.0 | 18.0 | 0.00 | 0.00 | 0.00 | 73 | 1013.7 |
| 20260504183532 | 86 | 17 | 11.0 | 18.0 | 0.00 | 0.00 | 0.00 | 73 | 1013.9 |
| 20260504183045 | 86 | 5 | 10.0 | 17.0 | 0.00 | 0.00 | 0.00 | 73 | 1014.0 |
| 20260504182530 | 86 | 22 | 9.0 | 17.0 | 0.00 | 0.00 | 0.00 | 73 | 1014.1 |
| 20260504182029 | 86 | 42 | 10.0 | 18.0 | 0.00 | 0.00 | 0.00 | 74 | 1014.2 |
| 20260504181548 | 86 | 41 | 9.0 | 18.0 | 0.00 | 0.00 | 0.00 | 73 | 1014.2 |
| 20260504181036 | 86 | 38 | 9.0 | 17.0 | 0.00 | 0.00 | 0.00 | 74 | 1014.3 |
| 20260504180532 | 85 | 14 | 11.0 | 17.0 | 0.00 | 0.00 | 0.00 | 74 | 1014.3 |
| 20260504180049 | 86 | 347 | 11.0 | 16.0 | 0.00 | 0.00 | 0.00 | 74 | 1014.5 |
| 20260504175533 | 86 | 16 | 9.0 | 14.0 | 0.00 | 0.00 | 0.00 | 75 | 1014.6 |
| 20260504175030 | 85 | 38 | 10.0 | 16.0 | 0.00 | 0.00 | 0.00 | 74 | 1014.7 |
| 20260504174550 | 86 | 352 | 10.0 | 16.0 | 0.00 | 0.00 | 0.00 | 74 | 1014.8 |
| 20260504174029 | 85 | 323 | 11.0 | 16.0 | 0.00 | 0.00 | 0.00 | 74 | 1014.8 |
| 20260504173531 | 86 | 331 | 10.0 | 15.0 | 0.00 | 0.00 | 0.00 | 74 | 1014.9 |
| 20260504173045 | 86 | 344 | 9.0 | 14.0 | 0.00 | 0.00 | 0.00 | 74 | 1014.9 |
| 20260504172530 | 86 | 350 | 10.0 | 14.0 | 0.00 | 0.00 | 0.00 | 73 | 1014.9 |
| 20260504172030 | 86 | 348 | 6.0 | 16.0 | 0.00 | 0.00 | 0.00 | 73 | 1014.9 |
| 20260504171546 | 86 | 36 | 8.0 | 16.0 | 0.00 | 0.00 | 0.00 | 73 | 1014.9 |
| 20260504171031 | 86 | 55 | 9.0 | 16.0 | 0.00 | 0.00 | 0.00 | 73 | 1015.0 |
| 20260504170530 | 86 | 10 | 9.0 | 14.0 | 0.00 | 0.00 | 0.00 | 73 | 1015.0 |
| 20260504151030 | 84 | 340 | 9.0 | 14.0 | 0.00 | 0.00 | 0.00 | 74 | 1016.2 |
| 20260504150530 | 84 | 352 | 9.0 | 15.0 | 0.00 | 0.00 | 0.00 | 74 | 1016.1 |
| 20260504141033 | 86 | 22 | 8.0 | 14.0 | 0.00 | 0.00 | 0.00 | 70 | 1016.4 |
| 20260504140530 | 87 | 21 | 7.0 | 14.0 | 0.00 | 0.00 | 0.00 | 67 | 1016.3 |
| 20260504130529 | 84 | 36 | 7.0 | 17.0 | 0.00 | 0.00 | 0.00 | 68 | 1016.2 |
| 20260504110529 | 77 | 352 | 1.0 | 5.0 | 0.00 | 0.00 | 0.00 | 82 | 1016.4 |
| 20260504100529 | 75 | 0 | 2.0 | 4.0 | 0.00 | 0.00 | 0.00 | 82 | 1016.0 |
| 20260504081552 | 75 | 0 | 1.0 | 6.0 | 0.00 | 0.00 | 0.00 | 82 | 1015.3 |
| 20260504081031 | 75 | 121 | 1.0 | 6.0 | 0.00 | 0.00 | 0.00 | 82 | 1015.3 |